Weather History for Killeen/Ft Hood, TX

Change the Weather History Date:

Tuesday, November 20, 2012

  Actual Average Record
Temperature  
Mean Temperature 70 °F -  
Max Temperature 84 °F 66 °F 89 °F (1996)
Min Temperature 55 °F 49 °F 37 °F (2001)
Cooling Degree Days 4    
Growing Degree Days 20 (Base 50)    
Moisture  
Dew Point 54 °F    
Average Humidity 64    
Maximum Humidity 89    
Minimum Humidity 31    
Precipitation  
Precipitation 0.00 in - - ()
Sea Level Pressure  
Sea Level Pressure 30.20 in    
Wind  
Wind Speed 4 mph (SE)    
Max Wind Speed 12 mph    
Max Gust Speed -    
Visibility 10 miles    
Events      
Averages and records for this station are not official NWS values.
T = Trace of Precipitation, MM = Missing Value Source: NWS Daily Summary

Daily Weather History Graph

Daily Weather History Graph

Search for Another Location

Airport:

Trip Planner

Search our weather history database for the weather conditions in past years. The results will help you decide how hot, cold, wet, or windy it might be!

Date:

Astronomy

Nov. 20, 2012 Rise Set
Actual Time 7:02 AM CST 5:30 PM CST
Civil Twilight 6:36 AM CST 5:56 PM CST
Nautical Twilight 6:07 AM CST 6:25 PM CST
Astronomical Twilight 5:38 AM CST 6:54 PM CST
Moon 12:51 PM CST No Moon Set
Length of Visible Light 11h 19m
Length of Day
10h 27m
First Quarter, 51% of the Moon is Illuminated
Nov 20
First Quarter
Nov 28
Full
Dec 6
Last Quarter
Dec 13
New
Dec 19
First Quarter

Hourly Weather History & Observations

Time (CST) Temp. Heat Index Dew Point Humidity Pressure Visibility Wind Dir Wind Speed Gust Speed Precip Events Conditions
12:56 AM 63.0 °F - 55.0 °F 75% 30.24 in 10.0 mi SSW 5.8 mph - N/A   Partly Cloudy
1:56 AM 63.0 °F - 55.0 °F 75% 30.24 in 10.0 mi South 5.8 mph - N/A   Partly Cloudy
2:56 AM 61.0 °F - 55.0 °F 81% 30.24 in 10.0 mi SSE 5.8 mph - N/A   Overcast
3:56 AM 59.0 °F - 54.0 °F 83% 30.25 in 10.0 mi SSE 4.6 mph - N/A   Partly Cloudy
4:56 AM 57.0 °F - 54.0 °F 89% 30.24 in 10.0 mi Calm Calm - N/A   Clear
5:56 AM 57.9 °F - 54.0 °F 87% 30.25 in 10.0 mi SSW 3.5 mph - N/A   Clear
6:56 AM 55.0 °F - 52.0 °F 89% 30.26 in 10.0 mi NNE 3.5 mph - N/A   Clear
7:56 AM 57.9 °F - 54.0 °F 87% 30.19 in 10.0 mi Calm Calm - N/A   Clear
8:56 AM 64.0 °F - 55.9 °F 75% 30.29 in 10.0 mi Calm Calm - N/A   Clear
9:56 AM 71.1 °F - 57.9 °F 63% 30.21 in 10.0 mi West 6.9 mph - N/A   Clear
10:56 AM 73.9 °F - 57.9 °F 57% 30.20 in 10.0 mi West 11.5 mph - N/A   Clear
11:56 AM 79.0 °F - 57.0 °F 47% 30.18 in 10.0 mi NW 8.1 mph - N/A   Clear
12:56 PM 81.0 °F 80.7 °F 55.0 °F 41% 30.15 in 10.0 mi Calm Calm - N/A   Clear
1:56 PM 82.9 °F - 48.9 °F 31% 30.13 in 10.0 mi Calm Calm - N/A   Clear
2:56 PM 84.0 °F 82.6 °F 54.0 °F 35% 30.11 in 10.0 mi East 8.1 mph - N/A   Mostly Cloudy
3:56 PM 81.0 °F 80.4 °F 53.1 °F 38% 30.19 in 10.0 mi East 5.8 mph - N/A   Scattered Clouds
4:56 PM 80.1 °F - 52.0 °F 38% 30.13 in 10.0 mi ENE 6.9 mph - N/A   Partly Cloudy
5:56 PM 73.9 °F - 53.1 °F 48% 30.15 in 10.0 mi East 3.5 mph - N/A   Clear
6:56 PM 71.1 °F - 53.1 °F 53% 30.17 in 10.0 mi Calm Calm - N/A   Clear
7:56 PM 69.1 °F - 54.0 °F 58% 30.18 in 10.0 mi East 4.6 mph - N/A   Clear
8:56 PM 66.9 °F - 55.0 °F 66% 30.20 in 10.0 mi East 3.5 mph - N/A   Clear
9:56 PM 64.0 °F - 55.0 °F 73% 30.20 in 10.0 mi SE 3.5 mph - N/A   Clear
11:56 PM 60.1 °F - 53.1 °F 78% 30.20 in 10.0 mi Calm Calm - N/A   Clear